sat.trackr.live / text

‹ back to catalog

EUTELSAT 7C

NORAD 44334 · 2019-034B

PAYLOAD ACTIVE UNKNOWN

§ Identity

Operator
Country
EUTE
Launch date
2019-06-20
Launch site
FRGUI
Launch vehicle
Mass (kg)
RCS (m²)

Purposes: comms

External: N2YO · Heavens-Above · Gunter

§ Orbital elements

Epoch: 2026-09-12T03:40:25.629024Z

Period
1,436.10 min
Inclination
0.0702°
Eccentricity
0.0003142
Mean motion
1.00271245 rev/d
Perigee alt
35,773.5 km
Apogee alt
35,800.0 km
Semi-major
42,164.9 km
B*
0.0000e+0
RAAN
178.8951°
Arg perigee
337.3168°
Mean anomaly
257.0443°
Rev number
770

§ Raw data

EUTELSAT 7C1 44334U 19034B   26255.15307441  .00000033  00000+0  00000+0 0  99942 44334   0.0702 178.8951 0003142 337.3168 257.0443  1.00271245  7700

JSON: /api/v1/satellites/44334 · /tle

For live sub-satellite position, see the globe view (requires WebGL).

§ Visibility from observer

Set your observer location to see the next 7 days of passes ≥ 10°. The values pass through the URL so the page stays shareable.

No JS? Fill the form by hand. The geolocation button needs JavaScript.